Location: Puketoi
(40.5833°S, 176.0167°E)
Time: 14:08:36
(UTC+00:00)

Cosmos 2173 Rocket - Pass Details

Date: 08 February 2023
Orbit: 945 x 999 km, 82.9° (Epoch: 31 March)

Event Time Altitude Azimuth Distance (km) Brightness Sun altitude
Exits shadow 13:35:23 69° 198° (SSW) 1,072 4.2 -32.4°
Drops below altitude 10° 13:41:05 10° 175° (S) 2,802 7.2 -32.1°
Sets 13:43:39 0° 173° (S) 3,759 8.1 -31.9°
